Andover, NJ

10:48 AM EDT on March 29, 2017 (GMT -0400)
Andover

Weather History for K12N - May, 2014

Change the Weather History Date:

Thursday, May 15, 2014

  Actual Average (KFWN) Record (KFWN)
Temperature  
Mean Temperature 66 °F -  
Max Temperature 75 °F 70 °F 85 °F (1955)
Min Temperature 60 °F 43 °F 29 °F (1969)
Cooling Degree Days 2    
Growing Degree Days 16 (Base 50)    
Moisture  
Dew Point 63 °F    
Average Humidity 88    
Maximum Humidity 100    
Minimum Humidity 76    
Precipitation  
Precipitation 0.06 in - - ()
Sea Level Pressure  
Sea Level Pressure 30.13 in    
Wind  
Wind Speed 3 mph (South)    
Max Wind Speed 10 mph    
Max Gust Speed 21 mph    
Averages and records for this station are not official NWS values.
T = Trace of Precipitation, MM = Missing Value Source: NWS Daily Summary

Daily Weather History Graph

Daily Weather History Graph

Search for Another Location

Airport or City:

Trip Planner

Search our weather history database for the weather conditions in past years. The results will help you decide how hot, cold, wet, or windy it might be!

Date:

Astronomy

May. 15, 2014 Rise Set
Actual Time 5:41 AM EDT 8:10 PM EDT
Civil Twilight 5:09 AM EDT 8:41 PM EDT
Nautical Twilight 4:31 AM EDT 9:20 PM EDT
Astronomical Twilight 3:47 AM EDT 10:04 PM EDT
Moon 9:15 PM EDT (5/15) 6:26 AM EDT (5/15)
Length of Visible Light 15h 31m
Length of Day
14h 28m
Full, 99% of the Moon is Illuminated
May 15
Full
May 21
Last Quarter
May 28
New
Jun 5
First Quarter
Jun 13
Full

Hourly Weather History & Observations

Time (EDT) Temp. Dew Point Humidity Pressure Visibility Wind Dir Wind Speed Gust Speed Precip Events Conditions
12:54 AM 60.1 °F 59.0 °F 96% 30.22 in - Calm Calm - N/A   Unknown
1:54 AM 60.1 °F 59.0 °F 96% 30.20 in - Calm Calm - N/A   Unknown
2:54 AM 61.0 °F 59.0 °F 93% 30.18 in - Calm Calm - N/A   Unknown
3:54 AM 61.0 °F 60.1 °F 97% 30.18 in - Calm Calm - N/A   Unknown
4:54 AM 60.1 °F 60.1 °F 100% 30.17 in - Calm Calm - 0.01 in   Unknown
5:54 AM 61.0 °F 60.1 °F 97% 30.17 in - Calm Calm - N/A   Unknown
6:54 AM 62.1 °F 62.1 °F 100% 30.17 in - Calm Calm - N/A   Unknown
7:54 AM 63.0 °F 62.1 °F 97% 30.17 in - Variable 4.6 mph - N/A   Unknown
8:54 AM 64.0 °F 62.1 °F 93% 30.17 in - Variable 3.5 mph - N/A   Unknown
9:54 AM 64.9 °F 63.0 °F 93% 30.17 in - Variable 5.8 mph - N/A   Unknown
11:54 AM 71.1 °F 64.0 °F 78% 30.16 in - SSW 6.9 mph - N/A   Unknown
12:54 PM 73.9 °F 66.0 °F 76% 30.14 in - Variable 3.5 mph - N/A   Unknown
1:54 PM 73.0 °F 66.0 °F 79% 30.12 in - Variable 4.6 mph - N/A   Unknown
3:54 PM 73.0 °F 66.9 °F 81% 30.08 in - Variable 5.8 mph - 0.01 in   Unknown
4:54 PM 73.0 °F 66.9 °F 81% 30.07 in - Variable 5.8 mph 20.7 mph 0.04 in   Unknown
5:54 PM 73.0 °F 64.9 °F 76% 30.07 in - Variable 6.9 mph 19.6 mph N/A   Unknown
6:54 PM 71.1 °F 64.9 °F 81% 30.07 in - Variable 6.9 mph - N/A   Unknown
7:54 PM 70.0 °F 64.9 °F 84% 30.07 in - South 10.4 mph 17.3 mph N/A   Unknown
8:54 PM 69.1 °F 64.9 °F 87% 30.07 in - Variable 5.8 mph - N/A   Unknown
9:54 PM 69.1 °F 64.9 °F 87% 30.07 in - South 10.4 mph 18.4 mph N/A   Unknown
10:54 PM 69.1 °F 64.9 °F 87% 30.06 in - Variable 6.9 mph - N/A   Unknown
11:54 PM 69.1 °F 64.0 °F 84% 30.04 in - South 8.1 mph - N/A   Unknown